Reflectivity
-20 -20 -20 -20 -20 -20 -20 -20 -20 -20 -20 -20 -20 -20 -20 -20 -20 -20 -20 -20 -20 -20 -20 -7 7 11 12 13 6 7 -16 -20 -20 10 -17 6 -20 -20 -20 -20 -20 -20 8 14 0 9 -20 -20 -20
-20 -20 -20 -20 -20 -20 -20 -20 -20 -20 -20 -20 -20 -20 -20 -20 -20 -20 -20 -20 -20 -20 -20 -20 11 12 14 8 4 12 14 14 -6 0 -20 -20 -20 -20 -20 -20 -20 1 -20 -20 -20 -20 -20 -20 -20
-20 -20 -20 -20 -20 -20 -20 -20 -20 -20 -20 -20 -20 -20 -20 -20 -20 -20 -20 -20 -20 -20 -20 -20 8 11 7 -20 2 14 15 6 17 -20 -20 -20 -20 -20 -20 -20 -20 -20 -20 -20 -20 -20 -20 -20 -20
-20 -20 -20 -20 -20 -20 -20 -20 -20 -20 -20 -20 -20 -20 -20 -20 -20 -20 -20 -20 -20 -20 -20 -10 2 -9 -20 -20 -20 5 10 14 -20 -20 -20 -20 -20 -20 -20 -20 -20 -20 -20 -20 -20 -20 -4 -10 -20
-20 -20 -20 -20 -20 -20 -20 -20 -20 -20 -20 -20 -20 -20 -20 -20 -20 -20 -20 -20 -20 -20 -20 -20 -3 -20 -20 -20 -20 -20 -1 15 16 -15 -20 -20 -20 -20 -20 -20 -20 -20 -20 -20 -3 3 -14 -20 -20
-20 -20 -20 -20 -20 -20 -20 -20 -20 -20 -20 -20 -20 -20 -20 -20 -20 -14 -20 -20 -20 -20 -20 -20 -20 -20 -20 -19 -20 -20 -7 18 10 -20 -20 -20 -20 -20 -20 -20 -15 -11 -14 -20 -6 9 -20 -20 -20
-20 -20 -20 -20 -20 -20 -20 -20 -20 -20 -20 -20 -20 -20 -20 -20 -20 3 -20 -20 -20 -4 -20 -20 -20 -20 -20 -16 -20 -20 1 -16 7 -19 -20 -20 -20 -20 -20 -20 -20 -20 -20 6 10 -20 -20 -20 -20
-20 -20 -20 -20 -20 -20 -20 -20 -20 -20 -20 -20 -20 -20 -20 -20 -20 4 6 -19 2 0 -20 -20 -20 -20 -20 -20 -20 -20 -20 -20 -4 15 -1 -20 -20 -20 -20 -20 -20 -20 17 11 -20 -20 -20 -20 -20
-20 -20 -20 -20 -20 -20 -20 -20 -20 -20 -20 -20 -20 -20 -20 -20 -20 0 5 14 4 -2 -11 -20 -20 -20 -20 -20 -20 -20 -20 -20 -20 -20 10 -6 -20 -14 -20 -20 -20 -20 3 -20 -20 -20 -20 -20 -20
-20 -20 -20 -20 -20 -20 -20 -20 -20 -20 -20 -20 -20 -20 -20 -15 -8 -10 12 4 -12 5 8 -20 -20 -20 -20 -20 -20 -20 -20 -20 -20 -20 -11 -14 -20 -2 -20 -20 -20 -20 -20 -20 -20 -20 -20 -20 -20
-20 -20 -20 -20 -20 -20 -20 -20 -20 -20 -20 -20 -20 -20 -20 -20 -2 -18 -2 -20 -10 -20 -20 0 -20 -20 -20 -20 -20 -20 -20 -20 -20 -20 -20 -20 -20 -20 9 -20 7 -0 -20 -20 -20 -20 -20 -20 -20
-20 -20 -20 -20 -20 -20 -20 -20 -20 -20 -20 -20 -20 -20 -20 -20 -20 -20 -19 -20 -11 -20 -10 -14 -20 -20 -20 -8 -20 -20 -20 -20 -20 -20 -20 -20 -20 -20 -18 -20 10 -20 -20 -20 -20 -20 -20 -20 -20
-20 -20 -20 -20 -20 -20 -20 -20 -20 -20 -20 -20 -20 -20 -20 -20 -20 -20 -20 -20 -20 -20 -20 -20 -20 -20 -20 -20 -16 -20 -20 -20 -20 -20 -20 -20 -20 -20 -20 -7 -20 -20 -20 -20 -20 -20 -20 -20 -20
-20 -20 -20 -20 -20 -20 -20 -20 -20 -20 -20 -20 -20 -20 -20 -20 -20 -20 -20 -20 -20 -20 -20 -20 -20 -20 -20 -20 -17 -20 -20 -20 -20 -20 -20 -20 -20 -20 -20 -16 -19 -20 -20 -20 -20 -20 -20 -20 -20
-20 -20 -20 -20 -20 -20 -20 -20 -20 -20 -20 -20 -20 -20 -20 -20 -20 -20 -20 -20 -20 -20 -20 -20 -20 -20 -1 -3 -20 -20 -20 -20 -20 -20 -20 -20 -20 -20 -20 -20 -20 -20 -20 -20 -20 -20 -20 -20 -20
-20 -20 -20 -20 -20 -20 -20 -20 -20 -20 -20 -20 -20 -20 -20 -20 -20 -20 -20 -20 -20 -20 -20 -20 -20 -20 -20 -16 -20 -20 16 -12 11 -20 -20 -20 -20 -20 -20 -20 -20 -20 -20 -20 -20 -20 -20 -20 -20
-20 -20 -20 -20 -20 -20 -20 -20 -20 -20 -20 -20 -20 -20 -20 -20 -20 -20 -20 -20 -20 -20 -20 -20 -20 -20 -20 -20 -10 -18 3 -20 -20 4 1 -20 -20 -20 -20 -20 -20 -20 -20 -20 -20 -20 -20 -20 -20
-20 -20 -20 -20 -20 -20 -20 -20 -20 -20 -20 -20 -20 -20 -20 -20 -20 -20 -20 -20 -20 -20 -20 -20 -20 -20 -20 -20 -10 1 9 -12 -20 -20 -20 -13 23 -20 -20 -20 -20 -20 -20 -20 -20 -20 -20 -20 -20
-20 -20 -20 -20 -20 -20 -20 -20 -20 -20 -20 -20 -20 -20 -20 -20 -20 -20 -20 -20 -20 -20 -20 -20 -20 -20 -20 -20 -4 5 -11 -15 -4 -20 -20 27 -20 -20 -20 -20 -20 -20 -20 -20 -20 -20 -20 -20 -20
-20 -20 -20 -20 -20 -20 -20 -20 -20 -20 -20 -20 -20 -20 -20 -20 -20 -20 -20 -20 -20 -20 -20 -20 -20 -20 -20 -20 -20 -20 -20 -20 -20 16 -16 -20 -20 -20 -20 -20 0 -20 -20 -20 -20 -20 -20 -20 -20
-20 -20 -20 -20 -20 -20 -20 -20 -20 -20 -20 -20 -20 -20 -20 -20 -20 -20 -20 -20 -20 -20 -20 -20 -20 -20 -20 -20 -20 -20 -20 -20 -11 -17 -1 -20 -20 -3 -16 27 26 -15 -20 -20 -20 -20 -20 -20 -20
-20 -20 -20 -20 -20 -20 -20 -20 -20 -20 -20 -20 -20 -20 -20 -20 -20 -20 -20 -20 -20 -20 -20 -20 -20 -20 -20 -20 -20 -20 -20 -20 -20 -20 -20 -20 -20 6 -18 23 20 -11 16 -20 -20 -20 -20 -20 -20
-20 -20 -20 -20 -20 -20 -20 -20 -20 -20 -20 -20 -20 -20 -20 -20 -20 -20 -20 -20 -20 -20 -20 -20 -20 -20 -20 -20 -20 -20 -20 -20 -20 -20 -20 -20 16 19 22 -16 -16 -20 -20 -20 -17 -20 -20 -20 -20
-20 -20 -20 -20 -20 -20 -20 -20 -20 -20 -20 -20 -20 -20 -20 -20 -20 -20 -20 -20 -20 -20 -20 -20 -20 -20 -20 -20 -20 -20 -20 -20 -20 -20 -20 -20 -20 8 19 8 9 -20 22 -20 22 17 -9 -7 -20
-20 -20 -20 -20 -20 -20 -20 -20 -20 -20 -20 -20 -20 -20 -20 -20 -20 -20 -20 -20 -20 -20 -20 -20 -20 -20 -20 -20 -20 -20 -20 -8 -20 -20 -20 -20 -20 -20 -20 13 -4 -7 -3 22 24 20 17 15 17
-20 -20 -20 -20 -20 -20 -20 -20 -20 -20 -20 -20 -20 -20 -20 -20 -20 -20 -20 -20 -20 -20 -20 -20 -20 -20 -20 -20 -20 -20 -20 -20 -20 -6 -20 -20 -20 -20 17 13 16 24 23 22 21 22 21 17 17
-20 -20 -20 -20 -20 -20 -20 -20 -20 -20 -20 -20 -20 -20 -20 -20 -20 -20 -20 -20 -20 -20 -20 -20 -20 -20 -20 -20 -20 -20 -20 -20 -20 -20 5 -20 -20 -20 -20 6 13 19 22 26 24 21 21 3 -20
-20 -20 -20 -20 -20 -20 -20 -20 -20 -20 -20 -20 -20 -20 -20 -20 -20 -20 -20 -20 -20 -20 -20 -20 -20 -20 -20 -20 -20 -20 -20 -20 -20 -20 -20 -20 -20 -20 -20 -20 -10 13 20 20 25 20 8 4 8
-20 -20 -20 -20 -20 -20 -20 -20 -20 -20 -20 -20 -20 -20 -20 -20 -20 -20 -20 -20 -20 -20 -20 -20 -20 -20 -20 -20 -20 -20 -20 -20 -20 -20 -20 -20 -20 -20 -20 -20 -20 -20 15 18 19 26 39 4 -8
-20 -20 -20 -20 -20 -20 -20 -20 -20 -20 -20 -20 -20 -20 -20 -20 -20 -20 -20 -20 -20 -20 -20 -20 -20 -20 -20 -20 -20 -20 -20 -20 -20 -20 -20 -20 -20 -20 -20 -20 -20 -20 -20 18 17 23 19 25 -11
Wind_Speed
2 3 2 4 2 3 2 4 2 3 2 0 4 3 3 0 4 3 2 9 10 15 13 15 14 12 12 12 11 12 11 12 13 14 14 11 10 10 10 10 9 8 11 14 15 14 13 11 10
2 2 4 3 4 2 4 3 4 4 3 9 4 2 2 1 1 3 7 7 13 15 12 14 14 13 13 11 10 11 13 14 14 15 13 11 10 10 10 11 11 11 12 14 14 11 11 11 10
3 4 3 3 3 6 4 5 4 4 7 2 2 1 1 1 1 7 1 12 16 14 13 13 14 13 12 12 9 9 11 15 15 13 12 11 11 11 11 11 10 9 12 12 10 10 11 10 9
3 3 4 2 7 5 6 1 4 5 2 3 2 2 1 2 0 4 11 15 16 13 13 14 15 14 12 11 10 10 12 13 14 13 13 11 11 12 12 12 11 10 10 10 10 10 10 9 8
3 2 3 3 6 3 4 3 2 2 3 4 5 2 2 3 3 8 15 14 15 13 12 14 15 14 14 13 11 10 10 11 16 14 13 12 11 11 12 11 10 9 9 10 10 10 10 9 8
4 3 3 9 8 2 4 4 1 2 1 5 1 2 2 2 4 9 13 14 13 13 12 12 14 13 13 13 12 11 12 13 14 13 13 12 12 12 11 10 8 6 9 9 8 11 10 9 8
6 5 7 5 10 6 4 4 3 3 1 3 1 1 1 1 5 9 12 12 11 11 11 10 11 12 11 13 11 10 10 14 14 12 12 12 11 11 11 9 7 6 8 7 11 11 10 10 10
4 3 7 5 6 7 4 5 2 4 2 2 2 3 1 2 9 9 9 10 9 11 11 10 10 10 11 12 11 11 10 10 11 12 11 11 11 10 10 8 5 4 9 12 10 10 10 10 10
2 3 6 10 8 4 3 5 1 1 0 2 1 2 5 6 12 9 9 8 8 9 11 9 9 9 9 10 10 10 10 10 10 10 10 10 7 9 10 7 6 5 9 10 9 9 11 11 10
3 5 9 6 6 5 5 3 2 2 3 1 3 4 5 8 10 12 12 12 11 11 11 9 10 10 9 7 9 9 9 8 9 9 9 7 7 7 8 7 8 8 9 8 10 9 9 6 4
4 5 5 4 5 5 6 2 3 4 2 3 3 2 4 4 5 8 8 8 11 11 8 11 11 10 10 8 6 5 5 6 6 10 9 7 5 5 6 5 5 6 7 5 6 5 3 5 3
4 4 5 3 5 4 4 5 1 3 5 4 4 1 1 6 7 7 7 7 9 11 10 10 12 11 11 7 7 8 7 6 6 7 9 6 5 6 7 5 6 6 4 6 4 3 4 5 5
3 3 3 2 0 3 3 2 5 6 5 5 4 2 4 3 3 6 8 9 10 12 12 13 13 13 11 11 7 8 9 8 9 7 8 7 6 7 7 5 6 5 5 5 5 5 4 4 4
8 4 3 1 2 0 5 5 4 5 4 5 3 7 7 7 6 3 5 8 12 12 14 13 15 12 13 12 11 8 8 9 8 8 9 10 7 7 7 6 6 6 5 5 5 5 5 4 4
6 4 2 4 4 3 4 5 7 11 6 8 8 7 8 10 6 11 8 8 9 11 12 15 15 16 14 13 12 10 9 9 9 9 11 12 10 10 9 8 7 6 5 7 6 5 5 5 4
5 3 4 2 7 5 7 8 2 4 5 9 10 8 9 13 12 9 10 10 10 8 10 12 12 15 17 15 11 8 9 9 10 10 10 13 13 12 10 8 8 7 6 6 6 6 5 4 4
3 4 4 2 6 3 6 2 3 2 3 9 9 10 8 10 10 12 12 10 11 11 10 10 13 15 17 16 11 10 12 11 9 9 9 14 14 13 10 9 8 9 7 7 7 4 4 5 4
7 5 3 5 3 3 2 7 10 11 3 8 9 11 10 10 15 11 10 11 10 8 9 10 9 15 15 11 9 7 8 9 9 10 11 14 12 14 12 9 10 9 8 7 7 7 3 3 5
6 5 4 2 1 2 4 5 11 11 6 10 12 13 13 11 6 7 8 9 8 9 8 10 9 12 9 9 9 9 9 11 9 10 15 15 14 15 14 10 10 11 11 11 11 6 6 3 6
4 4 3 2 1 1 3 11 16 11 7 7 9 9 9 5 6 6 8 8 9 10 8 8 11 12 11 9 9 9 10 9 10 8 12 14 16 16 14 13 12 13 10 11 11 7 5 3 8
3 5 3 2 2 2 5 6 5 2 3 4 6 6 3 4 7 8 8 6 7 8 8 9 10 11 11 13 8 4 1 2 5 7 10 13 16 16 16 15 12 13 11 11 12 10 9 6 7
5 4 4 4 3 2 4 5 7 4 3 1 8 8 8 7 6 5 8 9 8 6 6 7 8 10 9 12 11 13 11 11 11 12 11 10 15 16 16 15 15 14 11 13 14 12 9 7 8
3 5 5 3 3 1 3 2 6 3 4 3 7 8 8 5 4 6 7 6 7 7 6 6 6 7 9 10 13 12 14 11 9 8 11 11 11 14 15 16 17 15 11 13 13 13 12 7 6
9 7 7 4 2 1 2 2 4 0 1 3 3 4 4 6 6 4 4 4 8 7 7 6 6 5 6 6 11 14 15 14 9 9 9 9 8 10 13 14 14 14 12 12 11 11 13 11 4
1 5 1 2 2 3 1 2 7 4 4 3 2 4 6 6 7 8 10 10 10 10 10 8 6 5 4 5 7 13 16 14 11 11 9 8 7 9 14 16 15 14 14 12 11 11 10 9 7
2 4 4 4 3 2 2 6 2 4 5 2 4 3 6 7 7 7 8 8 8 8 9 8 9 8 6 4 6 7 11 8 9 8 8 8 9 10 12 13 13 14 14 13 12 9 7 8 6
4 2 3 7 1 2 2 5 6 1 3 1 4 7 11 8 8 8 9 8 10 11 12 10 10 8 7 7 5 5 6 8 6 7 6 7 8 7 10 13 13 13 13 13 12 9 10 9 7
2 6 3 2 2 3 3 4 3 3 3 3 6 10 8 6 10 11 11 12 11 10 10 10 7 8 7 7 6 6 5 6 8 7 8 10 8 9 9 11 12 12 12 10 11 9 10 11 6
2 1 5 4 1 3 1 4 6 5 4 3 8 9 8 7 10 11 12 11 11 10 10 11 10 10 9 9 10 9 8 8 7 8 9 8 7 8 9 11 11 12 12 12 10 10 10 12 9
1 4 4 4 4 1 1 6 1 5 6 4 8 8 4 8 9 11 12 10 10 11 12 11 12 11 9 8 8 9 10 9 8 7 7 6 7 8 9 10 10 11 11 10 11 11 10 12 11
Wind_Direction
41 27 75 41 65 50 271 258 293 266 245 243 286 193 215 161 173 205 0 172 151 152 158 147 144 149 143 150 151 152 143 137 140 140 133 135 124 118 113 113 119 129 88 91 91 82 85 86 85
71 93 51 92 111 164 260 251 235 238 289 308 260 225 234 146 89 89 121 183 157 150 153 149 144 148 155 156 166 154 152 143 142 133 132 131 124 120 122 124 129 89 96 84 81 89 90 86 97
99 53 100 122 141 188 225 218 208 299 312 278 326 280 313 96 91 164 151 150 152 152 150 150 151 155 156 157 159 145 147 142 137 137 136 128 131 129 127 118 112 85 86 89 95 93 93 94 97
124 58 64 158 214 236 208 243 183 338 314 35 343 304 321 355 20 176 145 148 149 150 154 158 147 151 158 158 163 153 152 150 142 139 134 135 138 136 128 122 117 108 106 110 110 106 101 95 91
47 71 123 201 239 244 249 260 227 320 296 304 353 325 289 45 46 129 148 152 154 153 158 151 145 158 161 161 165 165 160 166 146 144 142 143 142 135 132 128 125 125 123 122 122 114 95 84 80
83 113 146 214 225 209 256 231 248 239 272 299 328 287 270 24 112 144 150 154 156 158 158 151 155 162 161 164 156 163 176 161 147 147 148 149 144 140 137 135 132 125 143 132 132 105 96 88 87
133 138 194 197 235 257 219 169 217 215 213 263 236 211 250 164 143 146 148 151 156 161 161 159 167 165 169 155 154 153 152 152 152 155 155 150 146 146 145 142 140 131 137 138 112 105 96 88 89
121 108 159 200 195 244 207 175 184 177 234 309 196 213 281 62 151 139 141 153 161 165 168 173 174 172 173 168 161 161 161 163 162 162 159 153 149 152 148 146 149 126 124 108 109 108 94 88 92
149 127 194 192 163 216 179 170 163 7 341 293 206 10 321 156 148 147 148 151 168 174 181 179 179 181 179 178 174 168 168 170 168 169 174 163 169 166 161 152 153 116 111 109 113 110 100 88 83
165 184 202 184 176 184 168 168 175 135 10 263 103 10 57 156 165 169 176 176 180 185 191 188 187 189 187 185 182 182 180 184 183 178 165 164 167 176 174 164 161 133 114 116 111 105 103 103 97
166 203 175 206 177 147 152 175 186 125 268 208 131 27 84 154 187 189 201 200 195 196 194 198 194 193 192 194 187 189 190 186 185 182 176 173 171 184 183 170 166 149 123 122 117 115 95 101 104
145 224 180 160 178 134 168 141 159 196 206 154 137 337 74 164 204 212 218 215 211 206 201 204 204 200 196 191 194 195 195 195 195 193 186 175 175 184 185 179 170 163 156 145 139 128 122 113 108
151 194 204 190 99 160 131 214 230 243 246 262 284 261 270 272 224 209 219 215 213 221 219 208 203 205 201 200 197 197 200 200 201 196 196 190 186 189 180 169 173 168 163 162 150 148 138 122 116
176 175 187 235 240 271 171 227 153 264 269 261 227 258 262 266 248 242 212 221 220 224 219 206 208 209 208 206 198 200 205 202 201 203 201 199 196 192 189 173 181 176 176 167 160 157 145 129 131
139 130 256 240 195 236 160 267 227 239 252 263 267 250 262 251 253 245 243 244 227 223 218 210 205 205 213 207 205 203 204 208 205 204 205 202 200 200 191 188 187 180 172 159 146 139 137 133 130
120 94 169 219 167 226 147 254 231 223 221 262 270 264 261 265 263 257 260 253 260 254 225 221 207 208 212 212 208 202 208 208 215 207 205 204 203 200 196 191 192 179 168 166 164 156 144 148 157
163 177 186 299 185 134 198 231 213 246 216 270 275 276 250 264 266 260 259 244 244 238 243 230 218 212 214 219 209 201 207 209 207 203 202 204 202 203 199 198 192 174 171 175 166 156 155 164 154
156 134 168 193 171 128 191 261 270 285 250 252 264 267 268 253 253 258 254 250 250 234 239 245 219 220 215 214 214 205 212 217 207 205 206 200 203 197 198 200 193 176 174 173 175 164 139 159 149
132 125 160 211 94 188 226 253 269 263 244 248 246 250 254 260 285 250 262 255 251 253 240 236 239 229 215 212 204 211 212 214 212 211 210 202 198 195 195 197 191 180 183 183 178 149 158 144 154
101 122 201 289 346 135 351 288 265 252 235 249 271 266 263 277 304 298 286 288 276 270 245 238 229 231 216 211 211 211 215 223 220 217 212 205 201 194 192 189 190 183 178 180 178 163 149 133 186
137 161 174 175 326 72 319 285 304 22 53 344 11 327 302 331 336 346 344 322 309 283 274 258 242 235 225 215 209 188 56 215 207 209 213 209 200 196 194 190 188 183 180 184 184 179 171 156 193
161 153 130 105 73 254 0 299 290 36 350 84 11 17 38 43 14 355 3 357 345 319 290 272 265 243 234 217 208 205 212 223 225 223 218 209 203 197 195 189 187 192 189 189 189 183 184 148 168
110 106 92 87 100 41 24 111 273 354 73 21 15 20 33 36 14 5 353 342 333 341 341 331 296 269 249 224 213 213 218 226 222 215 215 211 207 207 198 191 183 191 195 196 198 183 184 187 161
150 75 52 50 77 40 264 194 302 143 169 324 342 11 345 342 342 337 303 308 343 341 352 345 351 312 280 242 245 227 223 226 218 213 211 206 196 199 204 195 192 191 198 195 195 199 196 182 155
139 94 37 6 27 209 330 197 249 270 252 235 356 309 319 325 350 353 352 350 346 342 337 333 333 319 328 275 247 245 239 239 235 228 219 207 203 196 198 194 193 193 194 192 188 187 188 181 179
96 138 160 189 189 228 110 230 231 237 278 239 185 301 295 339 343 337 332 328 327 322 320 320 317 304 316 306 286 257 246 245 258 241 220 210 207 212 215 202 198 196 195 189 183 181 179 170 168
193 107 137 105 37 25 232 280 303 309 77 64 308 339 348 335 344 336 332 329 330 326 319 319 315 288 288 296 297 285 263 238 237 234 230 237 223 214 197 197 200 197 190 185 177 176 172 161 151
126 135 105 9 116 255 273 281 218 252 294 317 322 337 326 335 349 341 340 340 337 330 323 325 328 302 291 298 297 297 291 260 247 249 236 230 219 198 184 188 192 188 188 178 175 170 161 148 142
126 103 57 97 93 180 309 259 205 206 214 281 320 314 321 342 342 339 336 331 328 332 348 343 357 346 336 331 317 307 297 288 266 244 244 229 203 186 181 184 179 180 179 174 163 155 150 138 134
118 147 137 135 214 71 117 274 209 231 247 232 292 292 338 348 342 344 336 337 353 0 358 358 352 348 338 323 314 306 300 285 262 249 247 212 189 171 169 164 165 167 167 166 162 156 146 136 123